RH
94 92 76 54 25 30 41 34 18 12 8 8 8 9 10 9 8 7 4 5 6 12 50 47 68 74 62 96 100 68 28 22 22 23 32 30 33 40 72 73 69 68 54 52 43 35 42 48 50 52 49 46 43 40
97 83 69 34 29 38 35 23 14 11 8 8 10 13 11 11 11 8 7 5 6 8 46 44 76 100 74 96 100 100 83 41 22 24 26 30 31 40 38 42 74 78 68 65 68 61 57 51 51 55 52 47 43 39
93 87 46 36 33 32 25 18 13 12 10 10 12 15 16 10 11 14 11 6 7 10 39 58 76 100 69 77 100 100 100 98 61 25 31 30 28 37 41 31 31 33 57 76 75 62 59 55 56 59 54 48 46 43
90 60 38 30 24 25 26 27 21 16 13 13 13 21 22 13 11 11 11 6 12 26 23 70 95 96 85 49 76 100 100 100 100 89 35 29 33 44 43 34 32 32 36 42 52 60 65 63 59 60 59 55 51 46
44 34 31 25 21 18 23 22 16 14 14 13 13 15 20 15 12 11 10 7 17 35 57 79 96 100 99 100 94 97 100 100 100 100 96 52 39 52 51 42 33 35 38 30 32 35 38 46 59 59 57 56 53 47
78 61 40 27 20 17 17 13 12 9 10 15 17 20 17 14 20 11 7 21 35 67 86 33 25 19 16 52 100 100 100 100 100 100 100 98 67 56 45 43 36 34 26 23 22 22 24 27 39 50 52 48 42 33
88 62 20 15 16 17 14 10 8 6 10 16 21 18 16 15 15 9 14 41 48 85 44 67 40 34 19 16 14 33 97 100 100 100 100 100 100 77 49 44 48 36 30 28 23 19 16 18 31 44 51 49 41 34
58 34 20 16 13 12 11 9 8 6 12 15 13 14 16 18 13 12 90 79 84 43 72 62 68 68 26 10 7 9 21 89 100 100 100 100 100 95 63 58 62 45 31 32 26 21 18 15 22 33 53 56 48 40
56 27 19 17 16 12 10 9 6 12 15 12 18 17 14 16 11 61 100 93 64 67 71 60 78 81 89 84 28 12 15 66 100 94 97 100 99 79 67 84 65 53 43 42 31 25 20 21 23 26 46 59 56 46
31 22 16 14 14 12 12 8 7 10 13 16 16 15 13 12 70 95 100 90 60 77 90 71 86 97 80 100 100 100 100 100 92 100 100 92 83 98 98 95 69 52 50 40 36 40 46 51 42 36 48 56 53 50
61 29 18 16 14 11 7 7 11 10 13 15 14 15 32 91 100 96 98 65 69 84 100 99 94 100 100 100 100 100 99 98 100 100 100 90 97 99 78 76 66 52 51 63 78 82 78 76 71 61 50 46 42 44
22 20 17 14 12 10 6 8 10 12 12 18 39 86 100 100 98 97 92 81 100 99 100 100 100 100 100 94 96 97 99 100 98 99 90 87 95 77 65 57 69 85 82 91 98 99 91 89 85 79 71 63 58 53
19 16 14 12 10 7 8 7 11 14 16 72 95 100 100 100 91 93 94 87 100 100 100 100 100 100 100 100 100 100 100 93 100 99 96 92 97 99 99 100 99 98 100 100 100 100 100 100 96 91 86 78 69 62
15 14 10 8 9 11 12 16 25 68 100 100 100 100 100 94 84 96 100 94 100 100 100 100 100 100 100 100 100 99 94 100 97 100 100 100 100 100 100 100 100 100 100 100 100 100 100 100 100 100 100 100 100 93
12 8 8 9 12 23 38 48 99 100 100 100 100 99 95 100 100 100 100 94 100 99 100 100 100 100 100 100 100 100 100 100 100 100 100 99 96 99 97 99 98 98 100 100 100 100 100 100 100 100 100 100 100 100
10 8 9 23 56 64 47 66 99 100 100 100 100 99 100 100 100 100 100 98 90 97 100 100 100 100 100 100 100 100 100 94 80 74 74 72 67 65 67 70 68 81 76 67 74 82 88 93 92 90 88 90 94 98
10 10 32 48 78 98 100 100 100 100 93 85 100 100 100 100 100 99 100 100 78 94 100 100 100 100 100 100 100 100 94 75 63 57 53 48 46 44 43 46 58 54 45 42 39 38 35 31 29 29 34 57 78 83
41 49 58 78 99 96 100 96 99 96 91 100 100 100 97 93 76 63 96 100 87 92 100 100 100 100 100 100 100 88 69 66 60 60 57 55 56 52 47 46 47 46 50 42 36 33 31 30 27 24 22 21 21 23
100 78 85 99 100 96 96 79 68 88 100 100 100 94 89 84 64 52 79 100 97 93 100 100 99 100 100 100 100 89 67 58 56 53 54 55 59 53 46 42 24 28 35 38 40 38 35 32 27 20 10 10 12 16
89 65 73 100 100 79 65 70 86 88 88 98 85 82 82 58 42 48 64 99 100 94 90 92 93 100 100 100 100 94 77 60 54 55 57 55 52 48 46 19 13 16 22 26 27 26 23 20 18 13 17 15 13 14
100 100 100 100 92 74 76 84 88 89 82 75 66 53 52 52 54 66 85 91 96 100 99 93 98 92 100 100 94 87 80 70 64 59 56 56 58 56 41 18 18 17 21 18 14 12 12 12 13 16 14 13 13 12
100 100 100 100 100 96 95 91 67 50 44 45 46 51 46 56 74 83 90 91 100 100 100 100 96 90 100 100 100 98 87 79 74 69 60 60 61 53 34 18 26 26 24 23 21 21 20 20 21 23 24 24 24 25
98 100 100 100 100 100 90 68 58 69 76 71 64 65 74 86 91 93 98 100 100 98 94 95 91 94 99 100 100 92 86 85 78 70 62 60 56 46 25 19 20 22 23 24 24 23 23 22 22 22 22 22 22 22
100 100 100 100 100 94 83 94 94 85 73 72 77 82 90 96 98 100 100 100 100 100 100 100 100 100 97 90 90 90 86 83 78 72 63 62 54 42 22 20 22 28 35 45 56 61 65 64 64 66 70 75 79 82
100 100 100 100 100 100 99 85 67 64 66 70 87 99 100 97 100 100 100 100 100 100 100 100 100 100 100 100 91 86 89 90 87 80 67 54 41 27 23 24 32 42 64 81 85 85 84 86 85 84 83 83 84 87
100 100 100 100 97 90 72 57 51 37 27 26 26 26 25 35 60 89 100 100 100 100 100 100 100 100 100 100 100 98 85 70 60 50 40 34 32 35 44 63 83 87 90 91 93 94 93 92 92 93 92 88 84 81
89 72 64 52 45 43 48 43 33 31 32 32 31 30 28 25 22 21 22 27 54 85 98 100 100 100 100 100 100 100 100 100 100 99 96 93 93 95 96 96 96 96 99 97 96 95 91 88 83 76 68 58 52 50
52 52 57 57 58 53 43 37 36 40 42 43 43 42 39 36 30 25 22 22 24 22 22 30 56 82 96 100 100 100 100 100 100 100 100 100 100 100 100 100 100 99 96 92 84 77 70 63 54 45 41 43 52 61
78 69 64 60 58 57 59 63 64 62 58 54 53 51 46 48 46 42 38 35 35 36 36 36 36 25 25 44 59 77 92 98 100 100 100 100 100 99 96 93 84 70 59 50 45 41 38 36 38 45 59 74 84 82
90 86 82 79 78 76 72 66 62 58 54 50 46 43 39 37 36 30 28 29 28 27 25 24 27 29 30 24 17 18 29 39 49 63 63 66 65 60 51 40 37 33 30 29 28 29 41 60 67 66 66 68 69 71
49 41 35 35 35 33 32 32 31 30 30 33 36 34 34 32 30 31 30 31 30 30 29 28 24 19 18 19 21 19 16 15 15 18 26 20 16 17 18 18 14 14 15 20 31 46 57 63 67 71 76 80 75 60
32 33 36 35 39 41 46 51 53 52 49 50 51 50 45 40 33 28 26 26 24 22 18 16 15 19 20 17 15 16 18 18 14 13 13 13 14 14 12 12 20 31 45 56 63 69 76 81 79 63 45 39 38 35
62 62 63 65 68 66 60 55 51 46 43 38 32 28 26 24 20 16 15 16 16 13 11 10 9 8 8 10 16 16 14 16 16 14 12 12 12 12 20 48 61 66 72 80 83 76 54 42 38 34 25 20 20 22
Wind_Speed
50 48 47 43 39 38 36 44 46 43 42 47 51 48 48 50 46 49 44 44 42 35 28 32 34 33 37 37 36 36 35 34 32 32 30 24 20 17 16 22 20 19 18 16 17 16 17 15 17 17 16 15 16 16
46 45 42 40 40 39 40 46 42 43 40 50 52 48 50 54 52 54 53 48 45 41 29 33 35 32 35 37 34 38 36 31 32 31 30 31 26 22 21 20 21 23 25 24 23 21 19 19 19 19 19 19 17 18
44 40 38 37 38 39 42 41 41 45 42 52 60 63 58 56 57 64 63 52 45 41 32 34 37 32 33 38 34 35 36 36 34 32 30 29 28 24 23 19 20 22 23 23 26 28 27 26 24 23 23 21 19 19
37 36 34 37 39 43 43 43 46 48 52 56 62 65 63 60 60 63 73 55 45 40 35 33 34 31 32 35 37 32 37 37 37 34 33 33 29 26 24 19 20 16 19 23 24 24 27 27 28 27 28 27 24 24
31 31 35 39 42 41 39 40 45 47 53 60 64 67 61 63 62 66 73 47 42 39 39 35 31 29 29 34 38 37 38 40 40 39 37 34 32 26 26 21 17 17 17 15 17 18 22 23 25 26 27 28 27 27
29 31 35 42 38 38 40 43 50 55 63 62 65 67 67 65 71 76 60 34 36 41 37 25 21 21 28 31 32 35 39 43 43 43 38 35 34 30 27 20 18 20 16 12 12 11 17 19 22 25 26 26 27 27
31 32 35 38 39 41 44 50 55 57 65 69 70 67 67 68 71 69 35 27 31 37 18 12 12 13 19 27 33 39 43 42 45 43 38 31 27 32 26 20 21 23 21 17 15 15 18 20 22 25 27 28 27 27
32 33 35 37 42 45 49 56 60 61 66 62 65 65 69 71 76 38 25 23 31 17 8 4 7 18 15 14 25 37 38 42 43 39 29 30 29 29 25 21 22 25 23 22 21 20 22 24 26 26 27 27 28 27
33 34 37 41 49 50 55 64 64 65 65 68 70 73 73 77 44 21 23 24 17 11 4 6 4 11 16 23 15 8 22 31 33 25 19 27 27 28 21 19 23 23 24 24 25 25 26 27 29 28 27 27 27 28
36 38 41 45 52 55 59 64 69 72 68 72 73 77 74 42 21 18 20 15 18 10 5 4 3 3 4 8 12 7 16 23 26 19 21 22 22 23 25 23 24 27 28 29 29 28 28 27 25 26 28 27 27 27
41 47 47 50 55 60 75 66 72 73 73 73 81 60 29 20 18 17 16 19 20 13 7 5 4 4 3 3 3 12 13 17 15 17 15 15 13 21 28 28 29 29 30 29 26 26 28 28 27 26 26 27 27 27
45 47 50 58 64 74 80 77 79 79 82 62 37 24 20 19 16 16 12 22 16 15 9 7 7 7 8 10 8 9 9 9 10 11 12 8 14 17 21 25 26 26 29 28 26 24 24 25 26 27 28 28 28 29
47 51 57 68 75 81 79 82 83 63 35 27 23 24 19 18 16 13 12 25 19 14 13 12 9 10 11 10 9 11 10 11 8 8 9 12 12 17 18 16 17 14 12 14 14 15 16 17 19 21 23 25 26 28
50 57 67 74 75 78 81 63 40 17 22 26 23 22 19 16 11 10 11 28 22 18 15 14 11 15 12 12 11 11 11 11 11 10 9 7 5 4 6 4 3 3 4 5 5 5 7 7 9 9 9 12 15 18
56 60 73 75 80 60 35 27 25 21 19 16 16 17 14 13 11 12 12 28 27 21 17 17 16 18 17 17 14 12 11 8 8 9 6 4 2 2 3 2 1 2 2 2 3 6 7 8 8 8 9 9 8 10
61 65 69 60 29 8 6 20 19 21 20 18 15 14 13 11 10 12 11 25 31 24 20 21 19 20 18 17 15 14 11 7 8 8 6 5 4 5 6 6 6 5 4 4 3 3 4 5 7 8 10 10 10 9
59 59 42 27 19 13 13 14 15 17 20 16 11 13 16 12 12 13 14 20 33 29 23 23 22 22 20 17 14 12 13 13 10 8 6 2 4 8 10 11 11 11 11 10 9 10 10 10 11 13 15 15 15 15
38 21 21 28 24 22 20 15 11 12 14 15 13 11 15 16 17 15 17 20 34 35 26 24 27 25 25 21 18 18 20 18 16 13 9 8 11 14 17 18 19 20 21 20 20 19 19 20 20 22 22 22 22 21
25 20 28 24 19 19 16 10 11 12 13 13 12 14 17 18 19 18 20 22 33 39 35 30 30 28 27 26 24 23 25 25 23 20 17 16 19 23 26 26 26 26 27 28 27 27 26 26 26 27 23 22 23 24
27 23 24 22 20 17 14 13 13 13 13 13 14 19 21 21 20 22 22 24 29 43 43 37 31 30 31 32 30 29 29 29 28 26 25 25 25 27 27 24 22 21 23 25 27 28 28 27 24 19 21 18 15 15
24 26 25 22 19 17 16 14 14 14 13 15 19 22 23 22 22 23 25 27 26 35 44 40 36 39 37 33 32 31 30 30 30 30 29 28 28 28 25 20 17 15 14 13 13 13 13 17 21 21 19 18 18 17
24 25 23 21 19 17 15 14 14 15 16 18 19 21 23 25 24 24 26 28 27 27 34 44 47 45 38 36 34 34 34 34 34 32 31 30 30 30 27 22 20 18 18 17 17 18 19 20 21 22 23 24 25 26
26 24 21 19 18 16 14 12 10 10 9 9 11 15 18 20 21 22 22 24 25 29 31 40 51 50 44 40 38 38 38 37 36 36 36 35 33 31 28 27 26 25 25 25 26 27 28 29 30 31 32 33 34 35
21 20 19 17 15 13 11 11 10 8 7 8 9 9 8 8 10 13 14 17 21 24 28 31 38 46 47 46 44 43 42 41 41 41 41 39 37 35 32 31 30 30 30 31 32 33 34 34 35 36 37 38 38 39
21 21 19 18 16 15 14 12 10 9 8 7 7 6 6 5 5 4 5 9 12 17 21 25 28 32 36 41 45 47 47 46 45 45 45 43 40 36 34 33 34 35 37 38 39 39 39 39 39 39 40 40 40 41
22 20 18 16 15 14 11 11 10 9 8 6 5 5 5 6 7 5 3 3 5 7 10 14 19 24 28 30 32 37 41 42 42 41 40 39 37 37 37 39 40 40 39 40 40 39 39 40 40 39 39 39 39 40
19 18 16 14 13 13 14 14 13 12 11 10 10 9 9 9 9 9 9 11 12 10 8 8 10 13 16 19 23 27 30 33 36 38 40 41 41 40 39 39 39 38 38 38 38 37 37 37 37 38 38 40 42 43
18 18 17 17 18 19 20 20 19 18 17 16 15 15 14 14 14 14 14 14 13 12 11 13 16 15 14 14 15 16 19 23 26 29 31 33 34 35 35 34 33 33 34 34 35 36 38 38 39 41 42 44 45 45
20 19 19 19 20 21 22 23 23 24 24 24 24 24 23 24 26 26 25 25 24 25 25 24 22 21 21 21 21 20 20 21 22 23 25 27 28 30 29 29 31 32 34 35 36 37 39 41 42 43 43 44 44 44
19 19 21 23 25 25 27 28 29 29 31 32 33 33 33 35 36 37 37 37 38 37 37 36 36 34 31 28 26 26 27 26 26 25 25 26 28 29 30 31 31 33 35 36 37 39 40 40 41 42 43 44 45 45
19 22 26 28 29 30 32 32 33 35 36 39 40 41 41 43 42 43 44 45 46 46 46 44 44 43 42 40 36 32 30 33 32 32 32 31 31 33 34 35 36 37 37 37 38 39 40 41 42 43 43 44 46 47
24 26 28 30 31 33 34 36 38 39 41 42 43 45 47 49 49 47 47 52 55 56 55 55 53 51 50 46 43 42 39 36 36 36 37 36 35 35 34 34 35 34 35 36 38 39 39 39 40 43 45 49 53 56
25 26 29 31 32 34 36 39 42 43 44 45 47 50 53 60 63 64 65 67 68 66 65 65 63 59 55 54 52 48 43 42 39 40 37 36 34 33 31 31 31 33 35 35 34 35 38 42 47 51 54 55 55 55
Wind_Direction
272 276 282 288 297 305 307 305 310 313 318 316 317 326 334 335 331 324 308 295 288 287 281 287 286 268 250 244 245 233 240 246 250 251 249 250 254 253 243 240 246 243 243 247 246 244 240 237 233 236 242 247 251 250
271 276 282 291 300 304 303 305 304 309 316 311 316 320 328 332 333 326 321 308 294 291 284 286 290 274 248 241 242 235 234 241 244 246 247 247 249 246 249 245 246 247 246 247 251 249 247 242 241 240 240 240 245 250
269 273 286 294 300 301 300 297 294 302 307 310 313 313 320 327 330 329 328 313 300 292 286 288 284 268 252 241 240 235 236 234 237 244 245 244 245 240 248 253 249 250 248 248 246 247 249 251 250 249 248 248 250 254
269 281 288 293 298 299 300 299 300 293 298 303 306 308 315 322 329 326 328 314 303 298 297 295 281 262 248 240 238 239 233 235 235 232 238 243 243 239 242 249 250 250 249 246 248 248 248 250 253 255 255 256 259 258
272 282 290 296 298 302 300 300 302 301 296 297 299 303 312 315 326 322 325 314 303 299 301 296 279 263 255 244 240 240 236 231 238 236 230 234 238 235 238 240 248 239 237 246 250 255 255 253 250 249 248 249 250 250
272 281 293 300 301 297 301 303 304 306 302 301 300 302 307 316 324 322 319 305 298 298 304 296 286 272 259 248 239 233 231 227 226 236 228 226 229 232 233 234 232 237 232 234 253 263 266 262 256 250 248 246 246 247
271 283 291 296 295 298 303 305 309 304 297 299 301 305 313 317 317 320 306 299 294 300 297 300 303 304 274 254 243 236 230 223 211 232 234 215 224 225 223 219 227 232 233 243 256 270 281 278 262 253 248 247 248 248
277 281 290 293 293 296 302 311 306 294 294 300 307 310 314 312 316 303 293 291 298 274 289 178 10 12 3 299 255 239 225 215 201 210 238 212 216 221 214 210 222 234 238 249 260 270 279 274 267 255 249 247 247 246
275 281 284 288 293 300 309 309 300 292 297 303 304 309 309 314 308 278 289 301 257 244 262 216 325 39 38 35 52 162 184 187 192 210 206 205 216 216 210 219 231 242 249 256 263 271 279 267 257 252 247 247 248 246
274 283 288 289 291 300 302 306 295 302 300 299 301 304 303 294 254 270 282 258 226 231 237 239 281 41 56 52 32 76 149 166 185 202 218 215 222 217 227 234 242 249 254 259 264 265 263 259 253 249 245 245 246 248
279 286 286 290 297 301 312 296 299 300 297 297 299 295 277 243 257 258 298 220 226 230 217 209 186 179 136 126 179 147 174 186 191 214 229 227 230 233 235 238 250 260 263 265 263 259 255 252 251 250 247 245 245 246
289 286 287 297 303 305 305 300 297 298 296 294 283 258 236 253 256 247 282 210 212 208 217 206 186 171 151 162 167 167 177 193 212 227 243 216 225 242 251 255 261 268 268 262 257 253 249 245 246 248 249 248 248 246
286 292 294 296 304 305 301 298 300 293 280 249 226 230 243 253 244 244 269 209 216 219 228 229 232 209 199 191 197 210 230 231 224 224 245 247 245 248 254 252 252 266 262 244 238 237 238 241 244 248 252 254 255 253
296 297 305 306 298 292 295 296 287 251 223 206 221 238 251 244 235 258 251 214 220 220 227 227 231 224 216 217 219 225 230 232 239 244 209 199 202 195 163 156 208 228 205 185 193 212 212 220 225 239 254 256 256 255
300 310 316 301 295 294 284 265 199 221 205 215 227 239 225 228 239 263 259 214 214 222 223 220 226 221 222 219 218 217 229 225 185 192 210 218 264 305 333 325 117 67 130 148 201 221 234 235 237 248 255 260 264 266
307 311 306 293 274 258 145 179 194 213 217 219 223 226 224 225 252 271 261 213 216 221 222 220 220 220 214 212 215 210 197 203 205 205 208 227 256 281 280 275 275 272 269 269 279 285 295 294 290 285 276 274 273 276
297 306 280 254 205 214 221 207 202 205 211 212 225 228 228 234 247 255 260 216 214 218 218 222 223 218 215 207 202 206 211 211 202 191 192 233 306 308 302 293 280 260 246 246 258 269 275 283 290 292 289 289 289 286
281 270 226 209 222 224 227 222 212 211 221 237 242 229 229 234 251 256 246 227 213 218 217 224 221 224 223 223 220 221 220 218 214 216 231 276 302 306 299 286 273 266 262 260 263 269 276 282 286 287 284 279 276 275
240 242 213 210 220 215 200 195 221 227 232 233 229 232 234 248 263 266 246 239 217 217 220 222 224 220 226 229 228 225 226 228 229 236 252 277 291 296 297 293 281 265 259 259 262 266 272 278 285 292 292 282 271 267
231 231 239 219 210 199 195 203 216 229 236 237 242 239 249 260 267 266 255 243 234 218 219 221 223 224 228 231 230 230 232 234 239 247 258 272 284 292 296 292 282 269 262 261 262 264 264 267 271 270 288 289 282 276
215 209 210 206 195 189 199 210 229 239 242 244 248 256 265 268 266 260 255 245 241 232 222 221 225 226 227 233 235 236 238 241 244 249 260 270 281 290 290 282 277 268 263 262 263 264 260 261 265 271 274 275 275 272
203 205 204 198 195 203 216 222 239 250 256 261 267 273 272 269 265 258 248 243 244 239 229 221 226 230 228 231 235 240 242 245 250 256 263 271 282 287 282 270 269 267 267 265 263 263 263 264 264 266 268 269 270 272
200 197 197 202 204 210 224 231 243 253 262 278 290 284 274 267 262 256 248 240 239 236 229 225 227 231 231 233 235 240 245 250 255 260 263 272 279 283 275 265 265 266 268 269 269 270 270 270 270 271 272 273 274 274
195 194 193 197 204 204 208 216 219 236 259 274 288 297 307 294 273 262 253 243 239 239 236 232 231 236 237 237 239 243 247 250 254 259 265 271 273 274 268 262 262 263 265 268 270 272 272 273 273 274 275 277 277 277
181 184 187 189 195 202 208 222 236 244 247 254 263 280 285 307 336 312 265 247 241 240 238 235 235 238 240 239 241 244 248 251 255 259 262 264 266 263 260 260 262 265 269 273 272 270 271 273 275 276 277 278 279 280
192 195 198 204 208 212 227 238 243 244 248 266 292 306 329 340 343 328 312 305 274 256 250 246 244 245 248 247 244 242 245 248 251 253 254 255 256 257 259 263 267 269 271 271 272 273 275 277 278 279 280 281 282 282
193 196 199 203 213 228 237 238 237 240 250 261 274 291 301 312 319 319 320 319 321 307 282 253 238 241 245 249 250 249 249 249 251 253 256 258 260 262 264 266 268 270 271 273 275 277 278 279 280 281 283 284 284 285
202 209 216 221 228 235 237 238 244 252 258 263 268 270 272 277 279 282 288 294 298 300 306 309 307 297 284 267 254 248 248 250 251 253 255 257 259 261 263 265 268 270 272 274 276 279 280 282 283 285 286 286 285 284
215 222 229 237 245 250 254 257 260 262 261 261 263 267 271 273 274 273 271 270 271 275 278 279 282 280 281 282 280 277 269 262 257 255 255 258 259 260 262 266 270 273 276 279 281 283 285 286 287 286 286 286 285 284
241 247 249 250 251 252 256 259 262 265 267 268 269 269 270 272 274 276 275 274 272 270 267 265 265 267 269 272 274 277 276 274 271 266 266 267 267 268 270 273 275 278 280 282 285 285 286 286 286 286 286 286 286 286
256 253 252 252 253 256 257 260 263 265 266 267 269 269 267 265 265 267 269 271 271 271 270 267 264 264 265 266 267 269 274 276 277 275 272 272 275 276 278 280 282 284 285 286 286 286 286 285 286 287 287 287 287 286
258 256 258 259 261 263 263 264 266 267 268 269 271 273 274 273 272 268 268 268 268 268 269 270 269 268 266 265 265 264 263 270 275 275 274 275 275 277 279 280 281 283 284 286 287 288 289 289 289 289 289 289 289 289
258 261 262 263 264 265 267 270 271 273 274 277 279 280 280 280 280 279 275 270 268 267 268 268 267 266 265 265 264 265 265 262 265 272 275 278 276 275 274 276 280 283 284 286 289 290 291 292 293 293 293 293 293 293